Terug naar catalogus

COSMOS 2531

ActiefNavigatiePO
NORAD 43752·PAYLOAD·🇷🇺 Russia

Gelanceerd Nov 30, 2018 vanaf Plesetsk Cosmodrome

Loading…

Volgende Passages (komende 24 uur)

TLE

VersSource: Space-Track

Epoch: Sep 14, 2026, 16:02 UTC

1 43752U 18097B   26257.66830672  .00000048  00000-0  27508-3 0  9993
2 43752  82.5240 167.8503 0015366 218.1827 141.8166 12.42914706353424

Volg COSMOS 2531 in realtime met AllMySat

Download on the App Store